Погода в Яме

Россия / Ярославская область     57°54′51″N   40°00′39″E
темп.,
°C
ветер,
м/с
пор.,
м/с
влажн.,
%
обл.,
%
осадки,
мм/ч
давл.,
гПа
погр.,
м
24 сентября, пт
пт2400:00+8юв41092100 0.1 1010542
03:00+8юв4996100 0.1 1008501
06:00+8ююв3797100 0.1 1007533
09:00+9ююв4893100 0.3 1006631
12:00+11ююв5875100 0.5 10061157
15:00+11ю5972100 1.1 10061160
18:00+8ююв387898 0.0 1007549
21:00+5юв399369 0.0 1008201
25 сентября, сб
сб2500:00+5юв399388 0.0 1008224
03:00+4юв269633 0.0 1009125
06:00+6вюв3889100 0.0 1008267
09:00+9ююв37765 0.0 1008409
12:00+11ю476098 0.0 1008806
15:00+11ююв4768100 0.1 1007911
18:00+10ююв4977100 0.1 1008545
21:00+9ююв31084100 0.2 1007493
26 сентября, вс
вс2600:00+8ююв3888100 0.1 1006368
03:00+8ююв2694100 0.6 1006228
06:00+8юв2797100 1.4 1006281
09:00+8вюв3797100 3.7 1006357
12:00+8в3697100 1.7 1008356
15:00+9всв369198 2.0 1011388
18:00+8св2595100 0.1 1013186
21:00+8ссв3994100 0.2 1015287
27 сентября, пн
пн2700:00+6ссв3109623 0.0 1017269
03:00+5с31095100 0.0 1018307
06:00+6с41096100 0.0 1019421
09:00+7с41096100 0.1 1021594
12:00+8ссв4895100 0.1 1022586
15:00+8ссв3892100 0.2 1024577
18:00+7ссв3894100 0.1 1026502
21:00+7св3794100 0.1 1027574
28 сентября, вт
вт2800:00+7св3795100 0.1 1029526
03:00+6св269579 0.1 1030348
06:00+6св2696100 0.0 1031313
09:00+7всв358894 0.0 1032421
12:00+10св227087 0.0 1033917
15:00+8с2377100 0.0 1033485
18:00+8с2375100 0.0 1034104
21:00+7ссв2581100 0.0 1034182